TimeEDT,TemperatureF,Dew PointF,Humidity,Sea Level PressureIn,VisibilityMPH,Wind Direction,Wind SpeedMPH,Gust SpeedMPH,PrecipitationIn,Events,Conditions,WindDirDegrees,DateUTC
12:53 AM,53.1,43.0,69,30.02,10.0,NNW,4.6,-,N/A,,Overcast,330,2012-10-07 04:53:00
1:46 AM,53.6,42.8,67,30.05,10.0,Calm,Calm,-,N/A,,Overcast,0,2012-10-07 05:46:00
1:53 AM,53.1,43.0,69,30.01,10.0,Calm,Calm,-,N/A,,Overcast,0,2012-10-07 05:53:00
2:53 AM,52.0,44.1,74,30.01,10.0,NNW,3.5,-,0.00,Rain,Light Rain,340,2012-10-07 06:53:00
3:33 AM,51.8,46.4,82,30.05,7.0,Calm,Calm,-,0.06,Rain,Rain,0,2012-10-07 07:33:00
3:48 AM,50.0,46.4,87,30.05,6.0,NNW,3.5,-,0.08,Rain,Light Rain,330,2012-10-07 07:48:00
3:53 AM,50.0,46.9,89,30.01,7.0,Calm,Calm,-,0.09,Rain,Rain,0,2012-10-07 07:53:00
4:53 AM,48.9,46.0,90,30.02,8.0,NNW,5.8,-,0.05,Rain,Light Rain,340,2012-10-07 08:53:00
5:43 AM,48.2,46.4,93,30.03,10.0,East,5.8,-,0.01,,Overcast,90,2012-10-07 09:43:00
5:53 AM,48.0,46.0,93,29.95,10.0,East,9.2,-,0.01,Rain,Light Rain,100,2012-10-07 09:53:00
6:15 AM,48.2,44.6,87,30.03,10.0,NNW,8.1,-,0.00,,Overcast,330,2012-10-07 10:15:00
6:53 AM,48.9,46.0,90,30.01,10.0,North,4.6,-,0.00,,Overcast,350,2012-10-07 10:53:00
7:53 AM,48.9,46.9,93,30.02,10.0,Calm,Calm,-,N/A,,Overcast,0,2012-10-07 11:53:00
8:53 AM,50.0,46.0,86,30.02,10.0,East,4.6,-,N/A,,Overcast,90,2012-10-07 12:53:00
9:53 AM,51.1,46.0,83,30.05,10.0,Calm,Calm,-,N/A,,Overcast,0,2012-10-07 13:53:00
10:53 AM,52.0,46.9,83,30.06,10.0,NW,3.5,-,N/A,,Overcast,310,2012-10-07 14:53:00
11:53 AM,51.1,46.0,83,30.05,10.0,North,3.5,-,0.00,Rain,Light Rain,360,2012-10-07 15:53:00
12:25 PM,50.0,46.4,87,30.10,1.8,NW,6.9,-,0.04,Rain,Rain,320,2012-10-07 16:25:00
12:34 PM,50.0,46.4,87,30.10,2.5,WNW,5.8,-,0.05,Rain,Light Rain,290,2012-10-07 16:34:00
12:53 PM,50.0,48.0,93,30.07,2.5,WNW,3.5,-,0.06,Rain,Light Rain,300,2012-10-07 16:53:00
1:17 PM,50.0,48.2,94,30.12,2.5,WNW,8.1,-,0.00,Rain,Light Rain,300,2012-10-07 17:17:00
1:25 PM,50.0,46.4,87,30.12,1.5,WNW,5.8,-,0.00,Rain,Light Rain,300,2012-10-07 17:25:00
1:27 PM,50.0,46.4,87,30.12,1.5,West,8.1,-,0.00,Rain,Light Rain,280,2012-10-07 17:27:00
1:53 PM,48.9,46.9,93,30.10,1.5,West,5.8,-,0.00,Rain,Light Rain,280,2012-10-07 17:53:00
2:00 PM,48.2,46.4,93,30.13,1.5,West,6.9,-,0.01,Rain,Light Rain,280,2012-10-07 18:00:00
2:33 PM,48.2,46.4,93,30.14,1.5,SW,8.1,-,0.02,Rain,Light Rain,230,2012-10-07 18:33:00
2:53 PM,48.9,46.9,93,30.11,1.5,West,5.8,-,0.03,Rain,Rain,260,2012-10-07 18:53:00
3:00 PM,48.2,46.4,93,30.14,2.0,West,3.5,-,0.01,Rain,Light Rain,260,2012-10-07 19:00:00
3:23 PM,46.4,42.8,87,30.15,3.0,NNW,10.4,-,0.01,Rain,Light Rain,340,2012-10-07 19:23:00
3:53 PM,46.9,42.1,83,30.13,3.0,Calm,Calm,-,0.02,Rain,Light Rain,0,2012-10-07 19:53:00
4:53 PM,48.0,44.1,86,30.11,10.0,Calm,Calm,-,0.00,,Overcast,0,2012-10-07 20:53:00
5:25 PM,48.2,44.6,87,30.13,10.0,Calm,Calm,-,N/A,,Overcast,0,2012-10-07 21:25:00
5:53 PM,50.0,45.0,83,30.10,10.0,Calm,Calm,-,N/A,,Mostly Cloudy,0,2012-10-07 21:53:00
6:53 PM,48.9,45.0,86,30.11,10.0,Calm,Calm,-,N/A,,Mostly Cloudy,0,2012-10-07 22:53:00
7:53 PM,46.0,45.0,96,30.12,9.0,Calm,Calm,-,N/A,,Mostly Cloudy,0,2012-10-07 23:53:00
8:53 PM,44.1,43.0,96,30.14,7.0,Calm,Calm,-,N/A,,Mostly Cloudy,0,2012-10-08 00:53:00
9:53 PM,45.0,44.1,97,30.15,6.0,Calm,Calm,-,N/A,,Mostly Cloudy,0,2012-10-08 01:53:00
10:49 PM,44.6,44.6,100,30.17,7.0,Calm,Calm,-,N/A,,Mostly Cloudy,0,2012-10-08 02:49:00
10:53 PM,45.0,44.1,97,30.14,7.0,Calm,Calm,-,N/A,,Mostly Cloudy,0,2012-10-08 02:53:00
11:31 PM,44.6,42.8,93,30.17,1.8,Calm,Calm,-,N/A,,Overcast,0,2012-10-08 03:31:00
11:53 PM,45.0,44.1,97,30.14,1.5,Calm,Calm,-,N/A,,Overcast,0,2012-10-08 03:53:00